Sisseton, SD

10:04 PM CDT on April 26, 2017 (GMT -0500)
Sisseton

Weather History for K8D3 - June, 2013

Change the Weather History Date:

Tuesday, June 18, 2013

  Actual Average Record
Temperature  
Mean Temperature 68 °F 67 °F  
Max Temperature 79 °F 78 °F 104 °F (1933)
Min Temperature 56 °F 56 °F 41 °F (1976)
Degree Days  
Heating Degree Days 0 1  
Month to date heating degree days 69 51  
Since 1 June heating degree days 69 51  
Since 1 July heating degree days 9142 8272  
Cooling Degree Days 3 3  
Month to date cooling degree days 30 43  
Year to date cooling degree days 55 66  
Since 1 June cooling degree days 30 43  
Growing Degree Days 17 (Base 50)    
Moisture  
Dew Point 56 °F    
Average Humidity 66    
Maximum Humidity 93    
Minimum Humidity 39    
Precipitation  
Precipitation 0.00 in 0.13 in 4.27 in (2014)
Month to date precipitation 1.70 2.36  
Year to date precipitation 11.04 9.34  
Sea Level Pressure  
Sea Level Pressure 30.00 in    
Wind  
Wind Speed 4 mph (SSE)    
Max Wind Speed 9 mph    
Max Gust Speed 13 mph    
T = Trace of Precipitation, MM = Missing Value Source: NWS Daily Summary

Daily Weather History Graph

Daily Weather History Graph

Search for Another Location

Airport or City:

Trip Planner

Search our weather history database for the weather conditions in past years. The results will help you decide how hot, cold, wet, or windy it might be!

Date:

Astronomy

Jun. 18, 2013 Rise Set
Actual Time 5:38 AM CDT 9:20 PM CDT
Civil Twilight 4:59 AM CDT 9:58 PM CDT
Nautical Twilight 4:08 AM CDT 10:49 PM CDT
Astronomical Twilight 2:58 AM CDT 12:00 AM CDT
Moon 3:54 PM CDT (6/18) 2:00 AM CDT (6/18)
Length of Visible Light 16h 58m
Length of Day
15h 42m
Waxing Gibbous, 71% of the Moon is Illuminated
Jun 18
Waxing Gibbous
Jun 23
Full
Jun 29
Last Quarter
Jul 8
New
Jul 15
First Quarter

Hourly Weather History & Observations

Time (CDT) Temp. Dew Point Humidity Pressure Visibility Wind Dir Wind Speed Gust Speed Precip Events Conditions
12:56 AM 62.1 °F 57.9 °F 86% 30.00 in - NNW 4.6 mph - N/A   Unknown
1:56 AM 61.0 °F 57.0 °F 87% 30.00 in - NNW 6.9 mph - N/A   Unknown
2:56 AM 60.1 °F 55.9 °F 86% 30.01 in - NNW 3.5 mph - N/A   Unknown
3:56 AM 57.0 °F 55.0 °F 93% 30.02 in - NE 3.5 mph - N/A   Unknown
4:56 AM 57.0 °F 54.0 °F 89% 30.02 in - SE 6.9 mph - N/A   Unknown
5:56 AM 55.9 °F 54.0 °F 93% 30.04 in - SSE 4.6 mph - N/A   Unknown
6:56 AM 59.0 °F 55.0 °F 87% 30.06 in - Calm Calm - N/A   Unknown
7:56 AM 60.1 °F 55.0 °F 83% 30.06 in - SE 4.6 mph - N/A   Unknown
8:56 AM 62.1 °F 57.0 °F 84% 30.06 in - SE 4.6 mph - N/A   Unknown
9:56 AM 66.0 °F 57.0 °F 73% 30.06 in - Calm Calm - N/A   Unknown
10:56 AM 69.1 °F 59.0 °F 70% 30.05 in - East 3.5 mph - N/A   Unknown
11:56 AM 72.0 °F 61.0 °F 68% 30.04 in - SSE 4.6 mph - N/A   Unknown
12:56 PM 73.0 °F 57.0 °F 57% 30.02 in - Variable 5.8 mph - N/A   Unknown
1:56 PM 73.0 °F 55.9 °F 55% 30.01 in - Calm Calm - N/A   Unknown
2:56 PM 77.0 °F 54.0 °F 45% 29.99 in - South 6.9 mph - N/A   Unknown
3:56 PM 79.0 °F 54.0 °F 42% 29.98 in - SSE 9.2 mph - N/A   Unknown
4:56 PM 77.0 °F 53.1 °F 43% 29.97 in - WSW 4.6 mph - N/A   Unknown
5:56 PM 78.1 °F 52.0 °F 40% 29.95 in - SSE 5.8 mph - N/A   Unknown
6:56 PM 78.1 °F 53.1 °F 42% 29.93 in - SSE 8.1 mph - N/A   Unknown
7:56 PM 77.0 °F 53.1 °F 43% 29.93 in - South 8.1 mph - N/A   Unknown
8:56 PM 73.9 °F 54.0 °F 50% 29.92 in - SSE 6.9 mph - N/A   Unknown
9:56 PM 69.1 °F 55.9 °F 63% 29.94 in - South 3.5 mph - N/A   Unknown
10:56 PM 64.0 °F 57.9 °F 80% 29.94 in - SW 3.5 mph - N/A   Unknown
11:56 PM 62.1 °F 57.0 °F 84% 29.94 in - Calm Calm - N/A   Unknown